Home   Weather   Oral   Past weeks

Flag for Kazakhstan Past Weather in Oral, Kazakhstan — Yesterday and Last 2 Weeks

Now
16 °F

Overcast.


Feels Like: 3 °F
Forecast: 5 / 30 °F
Wind: 10 mph from Southwest

Location: Uralsk

Current Time: Jan 24, 2017 at 2:03:57 am

Latest Report: Jan 24, 2017 at 1:00 am


Visibility: N/A

Pressure: 30.07 "Hg

Humidity: 86%

Dew Point: 12 °F

Location of OralLocation

Past Weather in Oral — Graph

°F

Oral Temperature Yesterday

Maximum temperature yesterday: 16 °F (at 5:30 pm)
Minimum temperature yesterday: 1 °F (at 10:00 am)
Average temperature yesterday: 10 °F

High & Low Weather Summary for the Past Weeks

 TemperatureHumidityPressure
High25 °F (Jan 9, 1:00 am)100% (Jan 9, 1:00 am)30.54 "Hg (Jan 9, 1:00 am)
Low-15 °F (Jan 18, 9:30 am)67% (Jan 16, 2:30 pm)29.62 "Hg (Jan 22, 3:00 am)
Average9 °F89%30.24 "Hg
* Reported Jan 9 1:00 am — Jan 24 1:00 am, Oral, Weather by CustomWeather, © 2017

Note: Actual official high and low records may vary slightly from our data, if they occured in-between our weather recording intervals... More about our weather records

Advertising

Oral Weather History for the Previous 24 Hours

Scroll right to see more
 ConditionsComfort  
Time TempWeatherWind HumidityBarometerVisibility
1:00 am
Tue, Jan 24
16 °FOvercast.10 mph86%30.07 "HgN/A
12:00 am14 °FOvercast.8 mph92%30.07 "HgN/A
11:00 pm
Mon, Jan 23
14 °FOvercast.8 mph85%30.07 "HgN/A
10:00 pm12 °FLight snow. Overcast.6 mph85%30.07 "HgN/A
9:00 pm12 °FMostly cloudy.8 mph85%30.07 "HgN/A
8:00 pm14 °FPartly cloudy.8 mph85%30.07 "HgN/A
7:30 pm14 °FPartly cloudy.10 mph85%30.07 "HgN/A
7:00 pm14 °FPartly cloudy.8 mph85%30.04 "HgN/A
6:30 pm14 °FPartly cloudy.6 mph85%30.04 "HgN/A
6:00 pm14 °FBroken clouds.6 mph85%30.04 "HgN/A
5:30 pm16 °FLight snow. Broken clouds.8 mph79%30.04 "HgN/A
5:00 pm14 °FBroken clouds.6 mph79%30.04 "HgN/A
4:30 pm14 °FSunny.8 mph79%30.01 "Hg10 mi
4:00 pm14 °FSunny.8 mph79%30.01 "Hg10 mi
3:30 pm14 °FScattered clouds.6 mph79%30.01 "HgN/A
3:00 pm14 °FBroken clouds.8 mph85%29.98 "HgN/A
2:30 pm14 °FPartly sunny.8 mph85%29.98 "HgN/A
2:00 pm14 °FBroken clouds.8 mph85%29.98 "HgN/A
1:30 pm12 °FSunny.8 mph85%29.98 "Hg10 mi
1:00 pm12 °FSunny.6 mph85%29.98 "Hg10 mi
12:30 pm10 °FSunny.6 mph92%29.98 "Hg10 mi
12:00 pm9 °FSunny.8 mph85%29.95 "Hg10 mi
11:30 am7 °FSunny.6 mph92%29.95 "Hg10 mi
11:00 am5 °FSunny.6 mph92%29.92 "Hg10 mi
10:30 am1 °FSunny.1 mph92%29.92 "Hg10 mi
10:00 am1 °FPassing clouds.3 mph85%29.89 "HgN/A
9:30 am3 °FSunny.10 mph92%29.89 "Hg10 mi
9:00 am5 °FPassing clouds.6 mph92%29.89 "HgN/A
8:30 am9 °FLight snow. Passing clouds.6 mph92%29.86 "Hg6 mi
8:00 am10 °FLight snow. Passing clouds.6 mph92%29.86 "Hg6 mi
7:30 am12 °FLight snow. Overcast.8 mph85%29.86 "Hg4 mi
7:00 am14 °FLight snow. Ice fog.6 mph92%29.83 "Hg1 mi
6:30 am14 °FLight snow. Overcast.6 mph92%29.83 "Hg4 mi
6:00 am10 °FLight snow. Ice fog.3 mph92%29.83 "Hg1 mi
5:30 am10 °FLight snow. Overcast.3 mph92%29.80 "Hg3 mi
5:00 am10 °FLight snow. Overcast.3 mph85%29.83 "Hg4 mi
4:00 am7 °FOvercast.3 mph92%29.80 "HgN/A
3:00 am9 °FOvercast.8 mph92%29.80 "HgN/A
2:00 am3 °FOvercast.8 mph85%29.80 "HgN/A
Weather by CustomWeather, © 2017

See weather overviewHow to use our weather pages